• In Hungary
  • List of Countries
  • For 7 days
  • Water Temperature
  • Satellite Maps
  • Weather Map
  • News
  • Weather Widgets
  • user-avatar
    Login

    Hourly Weather Vol

    Today, 21 August, Tuesday

    Time Temperature Precipitation Wind Pressure Humidity
    00:00 +14°C° 0.1 mm 1 mps 739 mmHg 98%
    01:00 +14°C° 0.1 mm 1 mps 739 mmHg 98%
    02:00 +14°C° 0 mm 1 mps 739 mmHg 98%
    03:00 +13°C° 0 mm 1 mps 739 mmHg 98%
    04:00 +13°C° 0 mm 1 mps 739 mmHg 99%
    05:00 +13°C° 0 mm 1 mps 739 mmHg 98%
    06:00 +14°C° 0 mm 1 mps 739 mmHg 97%
    07:00 +14°C° 0 mm 1 mps 739 mmHg 96%
    08:00 +15°C° 0 mm 1 mps 739 mmHg 90%
    09:00 +18°C° 0 mm 1 mps 739 mmHg 85%
    10:00 +19°C° 0 mm 1 mps 739 mmHg 79%
    11:00 +21°C° 0.1 mm 1 mps 739 mmHg 70%
    12:00 +22°C° 0.1 mm 1 mps 739 mmHg 62%
    13:00 +23°C° 0.1 mm 1 mps 739 mmHg 53%
    14:00 +23°C° 0 mm 2 mps 738 mmHg 52%
    15:00 +23°C° 0 mm 2 mps 738 mmHg 52%
    16:00 +23°C° 0 mm 2 mps 737 mmHg 51%
    17:00 +21°C° 0 mm 3 mps 737 mmHg 58%
    18:00 +20°C° 0 mm 3 mps 736 mmHg 64%
    19:00 +19°C° 0 mm 3 mps 736 mmHg 70%
    20:00 +18°C° 0 mm 3 mps 736 mmHg 75%
    21:00 +17°C° 0 mm 3 mps 735 mmHg 80%
    22:00 +15°C° 0 mm 4 mps 735 mmHg 85%
    23:00 +15°C° 0 mm 4 mps 734 mmHg 87%

    Tomorrow, 22 August, Wednesday

    Time Temperature Precipitation Wind Pressure Humidity
    00:00 +15°C° 0 mm 4 mps 734 mmHg 88%
    01:00 +14°C° 0 mm 4 mps 733 mmHg 90%
    02:00 +14°C° 0 mm 4 mps 732 mmHg 91%
    03:00 +14°C° 0 mm 5 mps 732 mmHg 91%
    04:00 +14°C° 0 mm 5 mps 731 mmHg 92%
    05:00 +15°C° 0.2 mm 5 mps 731 mmHg 92%
    06:00 +15°C° 0.2 mm 5 mps 731 mmHg 92%
    07:00 +15°C° 0.2 mm 5 mps 731 mmHg 92%
    08:00 +15°C° 0.8 mm 4 mps 731 mmHg 93%
    09:00 +14°C° 0.8 mm 4 mps 731 mmHg 94%
    10:00 +14°C° 0.8 mm 3 mps 731 mmHg 94%
    11:00 +13°C° 0.6 mm 3 mps 731 mmHg 93%
    12:00 +13°C° 0.6 mm 3 mps 731 mmHg 92%
    13:00 +12°C° 0.6 mm 3 mps 731 mmHg 90%
    14:00 +12°C° 0.1 mm 3 mps 732 mmHg 89%
    15:00 +12°C° 0.1 mm 3 mps 732 mmHg 87%
    16:00 +12°C° 0.1 mm 3 mps 732 mmHg 85%
    17:00 +13°C° 0 mm 2 mps 732 mmHg 84%
    18:00 +13°C° 0 mm 2 mps 733 mmHg 82%
    19:00 +13°C° 0 mm 2 mps 733 mmHg 81%
    20:00 +12°C° 0 mm 2 mps 733 mmHg 84%
    21:00 +12°C° 0 mm 2 mps 733 mmHg 87%
    22:00 +10°C° 0 mm 2 mps 733 mmHg 90%
    23:00 +9°C° 0 mm 2 mps 734 mmHg 93%

    Day after tomorrow, 23 August, Thursday

    Time Temperature Precipitation Wind Pressure Humidity
    00:00 +8°C° 0 mm 2 mps 734 mmHg 95%
    01:00 +7°C° 0 mm 2 mps 734 mmHg 97%
    02:00 +7°C° 0 mm 2 mps 734 mmHg 97%
    03:00 +7°C° 0 mm 2 mps 734 mmHg 97%
    04:00 +6°C° 0 mm 2 mps 734 mmHg 97%
    05:00 +7°C° 0.1 mm 2 mps 735 mmHg 95%
    06:00 +8°C° 0.1 mm 2 mps 735 mmHg 93%
    07:00 +8°C° 0.1 mm 2 mps 736 mmHg 91%
    08:00 +9°C° 0.1 mm 3 mps 736 mmHg 89%
    09:00 +9°C° 0.1 mm 3 mps 737 mmHg 88%
    10:00 +9°C° 0.1 mm 3 mps 737 mmHg 86%
    11:00 +8°C° 0.1 mm 4 mps 738 mmHg 86%
    12:00 +8°C° 0.1 mm 4 mps 738 mmHg 86%
    13:00 +8°C° 0.1 mm 4 mps 739 mmHg 85%
    14:00 +8°C° 0.2 mm 4 mps 739 mmHg 86%
    15:00 +8°C° 0.2 mm 4 mps 740 mmHg 86%
    16:00 +8°C° 0.2 mm 4 mps 740 mmHg 87%
    17:00 +8°C° 0 mm 4 mps 740 mmHg 86%
    18:00 +9°C° 0 mm 3 mps 741 mmHg 85%
    19:00 +9°C° 0 mm 3 mps 741 mmHg 84%
    20:00 +8°C° 0 mm 3 mps 741 mmHg 86%
    21:00 +8°C° 0 mm 2 mps 742 mmHg 88%
    22:00 +7°C° 0 mm 2 mps 742 mmHg 90%
    23:00 +7°C° 0 mm 2 mps 742 mmHg 91%

    24 August, Friday

    Time Temperature Precipitation Wind Pressure Humidity
    00:00 +6°C° 0 mm 2 mps 742 mmHg 92%
    01:00 +6°C° 0 mm 2 mps 743 mmHg 94%
    02:00 +5°C° 0 mm 2 mps 743 mmHg 94%
    03:00 +5°C° 0 mm 2 mps 743 mmHg 95%
    04:00 +5°C° 0 mm 2 mps 743 mmHg 96%
    05:00 +6°C° 0 mm 2 mps 743 mmHg 91%
    06:00 +6°C° 0 mm 2 mps 743 mmHg 87%
    07:00 +7°C° 0 mm 2 mps 744 mmHg 83%
    08:00 +9°C° 0 mm 3 mps 744 mmHg 74%
    09:00 +11°C° 0 mm 3 mps 744 mmHg 64%
    10:00 +13°C° 0 mm 3 mps 744 mmHg 55%
    11:00 +14°C° 0 mm 3 mps 744 mmHg 50%
    12:00 +17°C° 0 mm 3 mps 744 mmHg 46%
    13:00 +18°C° 0 mm 2 mps 744 mmHg 41%
    14:00 +18°C° 0 mm 2 mps 744 mmHg 40%
    15:00 +19°C° 0 mm 2 mps 744 mmHg 39%
    16:00 +19°C° 0 mm 2 mps 744 mmHg 38%
    17:00 +19°C° 0 mm 1 mps 745 mmHg 45%
    18:00 +16°C° 0 mm 1 mps 745 mmHg 53%
    19:00 +14°C° 0 mm 0 mps 745 mmHg 60%
    20:00 +13°C° 0 mm 0 mps 745 mmHg 64%
    21:00 +12°C° 0 mm 0 mps 745 mmHg 67%
    22:00 +10°C° 0 mm 0 mps 746 mmHg 71%
    23:00 +10°C° 0 mm 0 mps 746 mmHg 73%

    25 August, Saturday

    Time Temperature Precipitation Wind Pressure Humidity
    00:00 +11°C° 0 mm 1 mps 746 mmHg 76%
    01:00 +11°C° 0 mm 1 mps 746 mmHg 78%
    02:00 +11°C° 0 mm 1 mps 746 mmHg 81%
    03:00 +12°C° 0 mm 1 mps 747 mmHg 84%
    04:00 +12°C° 0 mm 1 mps 747 mmHg 86%
    05:00 +12°C° 0 mm 1 mps 747 mmHg 87%
    06:00 +13°C° 0 mm 1 mps 747 mmHg 87%
    07:00 +14°C° 0 mm 1 mps 747 mmHg 88%
    08:00 +16°C° 0 mm 1 mps 748 mmHg 81%
    09:00 +19°C° 0 mm 1 mps 748 mmHg 74%
    10:00 +21°C° 0 mm 1 mps 748 mmHg 67%
    11:00 +22°C° 0 mm 1 mps 748 mmHg 65%
    12:00 +22°C° 0 mm 1 mps 747 mmHg 62%
    13:00 +23°C° 0 mm 1 mps 747 mmHg 60%
    14:00 +23°C° 0 mm 1 mps 747 mmHg 58%
    15:00 +24°C° 0 mm 1 mps 747 mmHg 57%
    16:00 +24°C° 0 mm 1 mps 747 mmHg 55%
    17:00 +23°C° 0 mm 1 mps 747 mmHg 61%
    18:00 +22°C° 0 mm 1 mps 747 mmHg 68%
    19:00 +21°C° 0 mm 1 mps 747 mmHg 74%
    20:00 +20°C° 0 mm 1 mps 747 mmHg 80%
    21:00 +18°C° 0 mm 1 mps 747 mmHg 85%
    22:00 +16°C° 0 mm 1 mps 747 mmHg 91%
    23:00 +15°C° 0 mm 1 mps 747 mmHg 93%

    26 August, Sunday

    Time Temperature Precipitation Wind Pressure Humidity
    00:00 +15°C° 0 mm 1 mps 748 mmHg 94%
    01:00 +15°C° 0 mm 1 mps 748 mmHg 95%
    02:00 +14°C° 0 mm 1 mps 748 mmHg 96%
    03:00 +14°C° 0 mm 1 mps 748 mmHg 96%
    04:00 +14°C° 0 mm 1 mps 748 mmHg 96%
    05:00 +14°C° 0 mm 1 mps 748 mmHg 93%
    06:00 +15°C° 0 mm 2 mps 749 mmHg 90%
    07:00 +16°C° 0 mm 2 mps 749 mmHg 87%
    08:00 +18°C° 0 mm 2 mps 749 mmHg 77%
    09:00 +20°C° 0 mm 2 mps 749 mmHg 67%
    10:00 +22°C° 0 mm 3 mps 749 mmHg 57%
    11:00 +22°C° 0 mm 3 mps 749 mmHg 53%
    12:00 +24°C° 0 mm 3 mps 749 mmHg 49%
    13:00 +25°C° 0 mm 3 mps 749 mmHg 44%
    14:00 +26°C° 0 mm 3 mps 749 mmHg 44%
    15:00 +26°C° 0 mm 3 mps 749 mmHg 44%
    16:00 +26°C° 0 mm 3 mps 749 mmHg 43%
    17:00 +24°C° 0 mm 2 mps 749 mmHg 50%
    18:00 +23°C° 0 mm 2 mps 749 mmHg 57%
    19:00 +21°C° 0 mm 1 mps 749 mmHg 64%
    20:00 +20°C° 0 mm 1 mps 749 mmHg 68%
    21:00 +18°C° 0 mm 1 mps 749 mmHg 73%
    22:00 +16°C° 0 mm 1 mps 749 mmHg 77%
    23:00 +15°C° 0 mm 1 mps 749 mmHg 79%
    Show more